Find GPS III SV06

NORAD ID: 55268 Int'l Des: 2023-009 Owner: SFSSC Country: US Constellation: GPS operational
MEOCIRCULARGNSS

Live Position

Loading 3D Globe...

About GPS III SV06

Description loading...

Upcoming Passes

Passes for default location (London). Set your location on the main map for personalized predictions.

Altitude History

Loading altitude history...

Two-Line Element Set

1 55268U 23009A 26121.09072507 .00000072 00000-0 00000+0 0 9990
2 55268 55.1154 150.3698 0005650 314.7973 44.1636 2.00574786 24291
Epoch: May 1, 2026 • Age: 13 hours

Current Status

Altitude 20179.7 km
Velocity 3.87 km/s
Sub-Earth Point 27.54°N, 82.34°E
Launch Date Jan 18, 2023
Age 3.2 years
Type navigation

Technical Details

Classification Payload
Mass 4352.00 kg
Dry Mass 2160.00 kg
Total Mass 4352.00 kg
Length 3.40 m
Diameter 1.80 m
Span 14.00 m
Shape Box + 2 pan
Manufacturer LMSSD
Bus Type A2100
Phase Status In Orbit
Owner/State SFSSC/US

Most Searched